Time,TemperatureF,DewpointF,PressureIn,WindDirection,WindDirectionDegrees,WindSpeedMPH,WindSpeedGustMPH,Humidity,HourlyPrecipIn,Conditions,Clouds,dailyrainin,SolarRadiationWatts/m^2,SoftwareType,DateUTC
2013-03-01 00:11:00,13.0,10.0,-100.00,SSW,213,1.0,4.0,86,0.00,,,0.00,0.000000,,2013-03-01 07:11:00,
2013-03-01 00:22:00,13.0,10.0,-100.00,SSW,213,1.0,4.0,86,0.00,,,0.00,0.000000,,2013-03-01 07:22:00,
2013-03-01 00:32:00,13.0,10.0,-100.00,SSW,213,1.0,4.0,86,0.00,,,0.00,0.000000,,2013-03-01 07:32:00,
2013-03-01 00:42:00,13.0,10.0,-100.00,SSW,213,1.0,4.0,86,0.00,,,0.00,0.000000,,2013-03-01 07:42:00,
2013-03-01 00:52:00,13.0,10.0,-100.00,SSW,213,1.0,4.0,86,0.00,,,0.00,0.000000,,2013-03-01 07:52:00,
2013-03-01 01:22:00,14.0,10.0,-100.00,NE,36,1.0,5.0,84,0.00,,,0.00,0.000000,,2013-03-01 08:22:00,
2013-03-01 01:32:00,14.0,10.0,-100.00,NE,36,1.0,5.0,84,0.00,,,0.00,0.000000,,2013-03-01 08:32:00,
2013-03-01 01:42:00,14.0,10.0,-100.00,NE,36,1.0,5.0,84,0.00,,,0.00,0.000000,,2013-03-01 08:42:00,
2013-03-01 01:52:00,14.0,10.0,-100.00,NE,36,1.0,5.0,84,0.00,,,0.00,0.000000,,2013-03-01 08:52:00,
2013-03-01 02:12:00,14.0,10.0,-100.00,SW,225,2.0,7.0,84,0.00,,,0.00,0.000000,,2013-03-01 09:12:00,
2013-03-01 02:22:00,14.0,10.0,-100.00,SW,225,2.0,7.0,84,0.00,,,0.00,0.000000,,2013-03-01 09:22:00,
2013-03-01 02:32:00,14.0,10.0,-100.00,SW,225,2.0,7.0,84,0.00,,,0.00,0.000000,,2013-03-01 09:32:00,
2013-03-01 02:42:00,14.0,10.0,-100.00,SW,225,2.0,7.0,84,0.00,,,0.00,0.000000,,2013-03-01 09:42:00,
2013-03-01 02:52:00,14.0,10.0,-100.00,SW,225,2.0,7.0,84,0.00,,,0.00,0.000000,,2013-03-01 09:52:00,
2013-03-01 03:11:00,13.0,8.0,-100.00,ENE,68,3.0,11.0,80,0.00,,,0.00,0.000000,,2013-03-01 10:11:00,
2013-03-01 03:22:00,13.0,8.0,-100.00,ENE,68,3.0,11.0,80,0.00,,,0.00,0.000000,,2013-03-01 10:22:00,
2013-03-01 03:32:00,13.0,8.0,-100.00,ENE,68,3.0,11.0,80,0.00,,,0.00,0.000000,,2013-03-01 10:32:00,
2013-03-01 03:42:00,13.0,8.0,-100.00,ENE,68,3.0,11.0,80,0.00,,,0.00,0.000000,,2013-03-01 10:42:00,
2013-03-01 03:52:00,13.0,8.0,-100.00,ENE,68,3.0,11.0,80,0.00,,,0.00,0.000000,,2013-03-01 10:52:00,
2013-03-01 04:11:00,13.0,7.0,-100.00,NE,50,3.0,10.0,75,0.00,,,0.00,0.000000,,2013-03-01 11:11:00,
2013-03-01 04:22:00,13.0,7.0,-100.00,NE,50,3.0,10.0,75,0.00,,,0.00,0.000000,,2013-03-01 11:22:00,
2013-03-01 04:32:00,13.0,7.0,-100.00,NE,50,3.0,10.0,75,0.00,,,0.00,0.000000,,2013-03-01 11:32:00,
2013-03-01 04:42:00,13.0,7.0,-100.00,NE,50,3.0,10.0,75,0.00,,,0.00,0.000000,,2013-03-01 11:42:00,
2013-03-01 04:52:00,13.0,7.0,-100.00,NE,50,3.0,10.0,75,0.00,,,0.00,0.000000,,2013-03-01 11:52:00,
2013-03-01 05:21:00,14.0,8.0,-100.00,ESE,111,2.0,9.0,77,0.00,,,0.00,0.000000,,2013-03-01 12:21:00,
2013-03-01 05:32:00,14.0,8.0,-100.00,ESE,111,2.0,9.0,77,0.00,,,0.00,0.000000,,2013-03-01 12:32:00,
2013-03-01 05:42:00,14.0,8.0,-100.00,ESE,111,2.0,9.0,77,0.00,,,0.00,0.000000,,2013-03-01 12:42:00,
2013-03-01 05:52:00,14.0,8.0,-100.00,ESE,111,2.0,9.0,77,0.00,,,0.00,0.000000,,2013-03-01 12:52:00,
2013-03-01 06:22:00,14.0,9.0,-100.00,South,185,2.0,7.0,80,0.00,,,0.00,0.000000,,2013-03-01 13:22:00,
2013-03-01 06:32:00,14.0,9.0,-100.00,South,185,2.0,7.0,80,0.00,,,0.00,0.000000,,2013-03-01 13:32:00,
2013-03-01 06:42:00,14.0,9.0,-100.00,South,185,2.0,7.0,80,0.00,,,0.00,0.000000,,2013-03-01 13:42:00,
2013-03-01 06:52:00,14.0,9.0,-100.00,South,185,2.0,7.0,80,0.00,,,0.00,0.000000,,2013-03-01 13:52:00,
2013-03-01 07:21:00,15.0,9.0,-100.00,NNE,22,3.0,13.0,77,0.00,,,0.00,1.000000,,2013-03-01 14:21:00,
2013-03-01 07:32:00,15.0,9.0,-100.00,NNE,22,3.0,13.0,77,0.00,,,0.00,1.000000,,2013-03-01 14:32:00,
2013-03-01 07:42:00,15.0,9.0,-100.00,NNE,22,3.0,13.0,77,0.00,,,0.00,1.000000,,2013-03-01 14:42:00,
2013-03-01 07:52:00,15.0,9.0,-100.00,NNE,22,3.0,13.0,77,0.00,,,0.00,1.000000,,2013-03-01 14:52:00,
2013-03-01 08:21:00,18.0,11.0,-100.00,NW,317,4.0,12.0,72,0.00,,,0.00,17.000000,,2013-03-01 15:21:00,
2013-03-01 08:32:00,18.0,11.0,-100.00,NW,317,4.0,12.0,72,0.00,,,0.00,17.000000,,2013-03-01 15:32:00,
2013-03-01 08:42:00,18.0,11.0,-100.00,NW,317,4.0,12.0,72,0.00,,,0.00,17.000000,,2013-03-01 15:42:00,
2013-03-01 08:52:00,18.0,11.0,-100.00,NW,317,4.0,12.0,72,0.00,,,0.00,17.000000,,2013-03-01 15:52:00,
2013-03-01 09:11:00,25.0,13.0,-100.00,NNW,331,4.0,14.0,59,0.00,,,0.00,61.000000,,2013-03-01 16:11:00,
2013-03-01 09:21:00,25.0,13.0,-100.00,NNW,331,4.0,14.0,59,0.00,,,0.00,61.000000,,2013-03-01 16:21:00,
2013-03-01 09:32:00,25.0,13.0,-100.00,NNW,331,4.0,14.0,59,0.00,,,0.00,61.000000,,2013-03-01 16:32:00,
2013-03-01 09:42:00,25.0,13.0,-100.00,NNW,331,4.0,14.0,59,0.00,,,0.00,61.000000,,2013-03-01 16:42:00,
2013-03-01 09:51:00,25.0,13.0,-100.00,NNW,331,4.0,14.0,59,0.00,,,0.00,61.000000,,2013-03-01 16:51:00,
2013-03-01 10:11:00,30.0,14.0,-100.00,NNW,330,5.0,14.0,51,0.01,,,0.01,108.000000,,2013-03-01 17:11:00,
2013-03-01 10:21:00,30.0,14.0,-100.00,NNW,330,5.0,14.0,51,0.01,,,0.01,108.000000,,2013-03-01 17:21:00,
2013-03-01 10:32:00,30.0,14.0,-100.00,NNW,330,5.0,14.0,51,0.01,,,0.01,108.000000,,2013-03-01 17:32:00,
2013-03-01 10:41:00,30.0,14.0,-100.00,NNW,330,5.0,14.0,51,0.01,,,0.01,108.000000,,2013-03-01 17:41:00,
2013-03-01 10:52:00,30.0,14.0,-100.00,NNW,330,5.0,14.0,51,0.01,,,0.01,108.000000,,2013-03-01 17:52:00,
2013-03-01 11:22:00,30.0,14.0,-100.00,NW,313,7.0,18.0,51,0.05,,,0.06,321.000000,,2013-03-01 18:22:00,
2013-03-01 11:32:00,30.0,14.0,-100.00,NW,313,7.0,18.0,51,0.05,,,0.06,321.000000,,2013-03-01 18:32:00,
2013-03-01 11:42:00,30.0,14.0,-100.00,NW,313,7.0,18.0,51,0.05,,,0.06,321.000000,,2013-03-01 18:42:00,
2013-03-01 11:52:00,30.0,14.0,-100.00,NW,313,7.0,18.0,51,0.05,,,0.06,321.000000,,2013-03-01 18:52:00,
2013-03-01 12:11:00,31.0,15.0,-100.00,WNW,294,6.0,21.0,52,0.01,,,0.07,561.000000,,2013-03-01 19:11:00,
2013-03-01 12:21:00,31.0,15.0,-100.00,WNW,294,6.0,21.0,52,0.01,,,0.07,561.000000,,2013-03-01 19:21:00,
2013-03-01 12:32:00,31.0,15.0,-100.00,WNW,294,6.0,21.0,52,0.01,,,0.07,561.000000,,2013-03-01 19:32:00,
2013-03-01 12:42:00,31.0,15.0,-100.00,WNW,294,6.0,21.0,52,0.01,,,0.07,561.000000,,2013-03-01 19:42:00,
2013-03-01 12:51:00,31.0,15.0,-100.00,WNW,294,6.0,21.0,52,0.01,,,0.07,561.000000,,2013-03-01 19:51:00,
2013-03-01 13:11:00,33.0,16.0,-100.00,NW,304,7.0,20.0,50,0.00,,,0.07,607.000000,,2013-03-01 20:11:00,
2013-03-01 13:21:00,33.0,16.0,-100.00,NW,304,7.0,20.0,50,0.00,,,0.07,607.000000,,2013-03-01 20:21:00,
2013-03-01 13:32:00,33.0,16.0,-100.00,NW,304,7.0,20.0,50,0.00,,,0.07,607.000000,,2013-03-01 20:32:00,
2013-03-01 13:42:00,33.0,16.0,-100.00,NW,304,7.0,20.0,50,0.00,,,0.07,607.000000,,2013-03-01 20:42:00,
2013-03-01 13:52:00,33.0,16.0,-100.00,NW,304,7.0,20.0,50,0.00,,,0.07,607.000000,,2013-03-01 20:52:00,
2013-03-01 14:21:00,32.0,17.0,-100.00,WNW,302,7.0,21.0,53,0.00,,,0.07,603.000000,,2013-03-01 21:21:00,
2013-03-01 14:32:00,32.0,17.0,-100.00,WNW,302,7.0,21.0,53,0.00,,,0.07,603.000000,,2013-03-01 21:32:00,
2013-03-01 14:42:00,32.0,17.0,-100.00,WNW,302,7.0,21.0,53,0.00,,,0.07,603.000000,,2013-03-01 21:42:00,
2013-03-01 14:51:00,32.0,17.0,-100.00,WNW,302,7.0,21.0,53,0.00,,,0.07,603.000000,,2013-03-01 21:51:00,
2013-03-01 15:21:00,34.0,16.0,-100.00,NW,316,6.0,20.0,47,0.00,,,0.07,567.000000,,2013-03-01 22:21:00,
2013-03-01 15:32:00,34.0,16.0,-100.00,NW,316,6.0,20.0,47,0.00,,,0.07,567.000000,,2013-03-01 22:32:00,
2013-03-01 15:42:00,34.0,16.0,-100.00,NW,316,6.0,20.0,47,0.00,,,0.07,567.000000,,2013-03-01 22:42:00,
2013-03-01 15:51:00,34.0,16.0,-100.00,NW,316,6.0,20.0,47,0.00,,,0.07,567.000000,,2013-03-01 22:51:00,
2013-03-01 16:21:00,36.0,17.0,-100.00,East,96,6.0,19.0,45,0.00,,,0.07,521.000000,,2013-03-01 23:21:00,
2013-03-01 16:32:00,36.0,17.0,-100.00,East,96,6.0,19.0,45,0.00,,,0.07,521.000000,,2013-03-01 23:32:00,
2013-03-01 16:41:00,36.0,17.0,-100.00,East,96,6.0,19.0,45,0.00,,,0.07,521.000000,,2013-03-01 23:41:00,
2013-03-01 16:52:00,36.0,17.0,-100.00,East,96,6.0,19.0,45,0.00,,,0.07,521.000000,,2013-03-01 23:52:00,
2013-03-01 17:22:00,31.0,15.0,-100.00,ENE,74,6.0,15.0,50,0.00,,,0.07,330.000000,,2013-03-02 00:22:00,
2013-03-01 17:32:00,31.0,15.0,-100.00,ENE,74,6.0,15.0,50,0.00,,,0.07,330.000000,,2013-03-02 00:32:00,
2013-03-01 17:42:00,31.0,15.0,-100.00,ENE,74,6.0,15.0,50,0.00,,,0.07,330.000000,,2013-03-02 00:42:00,
2013-03-01 17:52:00,31.0,15.0,-100.00,ENE,74,6.0,15.0,50,0.00,,,0.07,330.000000,,2013-03-02 00:52:00,
2013-03-01 18:11:00,23.0,13.0,-100.00,SSW,198,6.0,16.0,66,0.00,,,0.07,78.000000,,2013-03-02 01:11:00,
2013-03-01 18:21:00,23.0,13.0,-100.00,SSW,198,6.0,16.0,66,0.00,,,0.07,78.000000,,2013-03-02 01:21:00,
2013-03-01 18:31:00,23.0,13.0,-100.00,SSW,198,6.0,16.0,66,0.00,,,0.07,78.000000,,2013-03-02 01:31:00,
2013-03-01 18:41:00,23.0,13.0,-100.00,SSW,198,6.0,16.0,66,0.00,,,0.07,78.000000,,2013-03-02 01:41:00,
2013-03-01 18:51:00,23.0,13.0,-100.00,SSW,198,6.0,16.0,66,0.00,,,0.07,78.000000,,2013-03-02 01:51:00,
2013-03-01 19:22:00,22.0,13.0,-100.00,SE,129,7.0,19.0,68,0.00,,,0.07,1.000000,,2013-03-02 02:22:00,
2013-03-01 19:32:00,22.0,13.0,-100.00,SE,129,7.0,19.0,68,0.00,,,0.07,1.000000,,2013-03-02 02:32:00,
2013-03-01 19:42:00,22.0,13.0,-100.00,SE,129,7.0,19.0,68,0.00,,,0.07,1.000000,,2013-03-02 02:42:00,
2013-03-01 19:52:00,22.0,13.0,-100.00,SE,129,7.0,19.0,68,0.00,,,0.07,1.000000,,2013-03-02 02:52:00,
2013-03-01 20:21:00,22.0,13.0,-100.00,SE,126,4.0,17.0,67,0.00,,,0.07,0.000000,,2013-03-02 03:21:00,
2013-03-01 20:32:00,22.0,13.0,-100.00,SE,126,4.0,17.0,67,0.00,,,0.07,0.000000,,2013-03-02 03:32:00,
2013-03-01 20:42:00,22.0,13.0,-100.00,SE,126,4.0,17.0,67,0.00,,,0.07,0.000000,,2013-03-02 03:42:00,
2013-03-01 20:52:00,22.0,13.0,-100.00,SE,126,4.0,17.0,67,0.00,,,0.07,0.000000,,2013-03-02 03:52:00,
2013-03-01 21:11:00,21.0,12.0,-100.00,South,176,4.0,11.0,67,0.00,,,0.07,0.000000,,2013-03-02 04:11:00,
2013-03-01 21:21:00,21.0,12.0,-100.00,South,176,4.0,11.0,67,0.00,,,0.07,0.000000,,2013-03-02 04:21:00,
2013-03-01 21:32:00,21.0,12.0,-100.00,South,176,4.0,11.0,67,0.00,,,0.07,0.000000,,2013-03-02 04:32:00,
2013-03-01 21:42:00,21.0,12.0,-100.00,South,176,4.0,11.0,67,0.00,,,0.07,0.000000,,2013-03-02 04:42:00,
2013-03-01 21:51:00,21.0,12.0,-100.00,South,176,4.0,11.0,67,0.00,,,0.07,0.000000,,2013-03-02 04:51:00,
2013-03-01 22:12:00,21.0,13.0,-100.00,NE,45,5.0,14.0,70,0.00,,,0.07,0.000000,,2013-03-02 05:12:00,
2013-03-01 22:22:00,21.0,13.0,-100.00,NE,45,5.0,14.0,70,0.00,,,0.07,0.000000,,2013-03-02 05:22:00,
2013-03-01 22:32:00,21.0,13.0,-100.00,NE,45,5.0,14.0,70,0.00,,,0.07,0.000000,,2013-03-02 05:32:00,
2013-03-01 22:42:00,21.0,13.0,-100.00,NE,45,5.0,14.0,70,0.00,,,0.07,0.000000,,2013-03-02 05:42:00,
2013-03-01 22:52:00,21.0,13.0,-100.00,NE,45,5.0,14.0,70,0.00,,,0.07,0.000000,,2013-03-02 05:52:00,
2013-03-01 23:21:00,21.0,14.0,-100.00,NE,50,6.0,16.0,74,0.00,,,0.07,0.000000,,2013-03-02 06:21:00,
2013-03-01 23:32:00,21.0,14.0,-100.00,NE,50,6.0,16.0,74,0.00,,,0.07,0.000000,,2013-03-02 06:32:00,
2013-03-01 23:42:00,21.0,14.0,-100.00,NE,50,6.0,16.0,74,0.00,,,0.07,0.000000,,2013-03-02 06:42:00,
2013-03-01 23:51:00,21.0,14.0,-100.00,NE,50,6.0,16.0,74,0.00,,,0.07,0.000000,,2013-03-02 06:51:00,